Location: Arrodets-la-Barthe
(43.0306°N, 0.2829°E)
Time: 18:45:53
(UTC+00:00)

CUBESAT XI-V - Visible Passes

Search period start: 28 March 2023 00:00
Search period end: 07 April 2023 00:00
Orbit: 665 x 687 km, 98.1° (Epoch: 27 March)

Date Brightness Start Highest point End Pass type
(mag) Time Alt. Az. Time Alt. Az. Time Alt. Az.
29 Mar ? 01:30:44 10° N 01:30:44 10° N 01:30:49 10° N visible
31 Mar ? 01:02:04 12° N 01:02:04 12° N 01:02:23 10° N visible
01 Apr ? 01:36:54 13° N 01:36:54 13° N 01:37:21 10° N visible
02 Apr ? 00:33:23 10° NNE 00:33:23 10° NNE 00:33:30 10° NNE visible
02 Apr ? 02:11:42 11° NNW 02:11:42 11° NNW 02:11:53 10° NNW visible
03 Apr ? 01:08:11 14° N 01:08:11 14° N 01:08:58 10° N visible
04 Apr ? 01:43:00 15° N 01:43:00 15° N 01:43:50 10° N visible
05 Apr ? 00:39:28 13° NNE 00:39:28 13° NNE 00:40:11 10° NNE visible
05 Apr ? 02:17:48 13° NNW 02:17:48 13° NNW 02:18:15 10° NNW visible
06 Apr ? 01:14:16 17° N 01:14:16 17° N 01:15:29 10° N visible
